sat.trackr.live / text

‹ back to catalog

STARLINK-36379

NORAD 68769 · 2026-086D

PAYLOAD ACTIVE UNKNOWN

§ Identity

Operator
Country
US
Launch date
2026-04-19
Launch site
AFWTR
Launch vehicle
Mass (kg)
RCS (m²)

Purposes: comms

External: N2YO · Heavens-Above · Gunter

§ Orbital elements

Epoch: 2026-05-25T04:00:03.998880Z

Period
92.95 min
Inclination
97.2852°
Eccentricity
0.0000715
Mean motion
15.49150371 rev/d
Perigee alt
418.7 km
Apogee alt
419.7 km
Semi-major
6,797.3 km
B*
2.4464e-4
RAAN
181.8946°
Arg perigee
87.3337°
Mean anomaly
322.3573°
Rev number
606

§ Raw data

STARLINK-363791 68769U 26086D   26145.16671295  .00013219  00000+0  24464-3 0  99912 68769  97.2852 181.8946 0000715  87.3337 322.3573 15.49150371  6065

JSON: /api/v1/satellites/68769 · /tle

For live sub-satellite position, see the globe view (requires WebGL).

§ Visibility from observer

Set your observer location to see the next 7 days of passes ≥ 10°. The values pass through the URL so the page stays shareable.

No JS? Fill the form by hand. The geolocation button needs JavaScript.